Flag for Germany

Past Weather in Warstein, North Rhine-Westphalia, Germany — Yesterday and Last 2 Weeks

Currently: 32 °F. Passing clouds. (Weather station: Dortmund / Wickede, Germany). See more current weather

Past Weather in Warstein — Graph

°F

Warstein Temperature Yesterday

Maximum temperature yesterday: 36 °F (at 12:20 am)
Minimum temperature yesterday: 30 °F (at 10:50 pm)
Average temperature yesterday: 33 °F

High & Low Weather Summary for the Past Weeks

 TemperatureHumidityPressure
High54 °F (Jan 21, 4:20 am)100% (Jan 10, 12:20 am)30.39 "Hg (Jan 10, 12:20 am)
Low28 °F (Jan 16, 10:50 pm)50% (Jan 20, 1:20 pm)29.03 "Hg (Jan 22, 2:20 am)
Average38 °F83%29.82 "Hg
* Reported Jan 10 12:20 am — Jan 25 12:50 am, Warstein. Weather by CustomWeather, © 2021

Note: Actual official high and low records may vary slightly from our data, if they occured in-between our weather recording intervals... More about our weather records

Warstein Weather History for the Previous 24 Hours

Scroll right to see more
 ConditionsComfort  
Time TempWeatherWind HumidityBarometerVisibility
12:50 am
Mon, Jan 25
32 °FPassing clouds.6 mph80%29.47 "HgN/A
12:20 am32 °FPassing clouds.9 mph80%29.47 "HgN/A
11:50 pm
Sun, Jan 24
30 °FPassing clouds.8 mph86%29.47 "HgN/A
11:20 pm32 °FPassing clouds.9 mph87%29.47 "HgN/A
10:50 pm30 °FPassing clouds.7 mph93%29.50 "HgN/A
10:20 pm32 °FClear.9 mph87%29.50 "Hg10 mi
9:50 pm32 °FClear.8 mph87%29.50 "Hg10 mi
9:20 pm32 °FClear.7 mph87%29.50 "Hg10 mi
8:50 pm32 °FClear.7 mph87%29.50 "Hg10 mi
8:20 pm32 °FClear.7 mph93%29.50 "Hg10 mi
7:50 pm32 °FClear.8 mph93%29.50 "Hg10 mi
7:20 pm34 °FClear.9 mph87%29.50 "Hg10 mi
6:50 pm34 °FClear.8 mph87%29.50 "Hg10 mi
6:20 pm34 °FPassing clouds.10 mph93%29.50 "HgN/A
5:50 pm34 °FClear.10 mph87%29.50 "Hg10 mi
5:20 pm34 °FPassing clouds.10 mph93%29.50 "HgN/A
4:50 pm34 °FPartly sunny.9 mph93%29.50 "HgN/A
4:20 pm34 °FLow clouds.10 mph93%29.50 "HgN/A
3:50 pm34 °FMostly cloudy.9 mph93%29.50 "HgN/A
3:20 pm34 °FMostly cloudy.7 mph93%29.50 "Hg5 mi
2:50 pm34 °FFog.10 mph93%29.50 "Hg3 mi
2:20 pm36 °FLow clouds.9 mph87%29.50 "HgN/A
1:50 pm34 °FMostly cloudy.7 mph93%29.50 "Hg5 mi
12:50 pm36 °FMostly cloudy.7 mph93%29.47 "HgN/A
12:20 pm36 °FLow clouds.6 mph93%29.47 "Hg5 mi
11:50 am34 °FLow clouds.8 mph100%29.47 "Hg4 mi
11:20 am34 °FLow clouds.7 mph100%29.45 "Hg4 mi
10:50 am34 °FFog.6 mph100%29.45 "Hg2 mi
10:20 am34 °FLow clouds.6 mph100%29.45 "Hg4 mi
9:50 am34 °FLow clouds.5 mph93%29.42 "Hg4 mi
9:20 am32 °FLow clouds.7 mph100%29.42 "Hg3 mi
8:50 am32 °FLight snow. Ice fog.8 mph100%29.39 "Hg1 mi
8:20 am32 °FLight snow. Ice fog.6 mph100%29.36 "Hg1 mi
7:50 am32 °FLight snow. Ice fog.6 mph100%29.36 "Hg1 mi
7:20 am32 °FLight snow. Ice fog.6 mph100%29.33 "Hg1 mi
6:50 am32 °FLight snow. Passing clouds.3 mph100%29.33 "Hg1 mi
6:20 am32 °FLight snow. Ice fog.3 mph100%29.30 "Hg1 mi
5:50 am32 °FLight rain. Ice fog.6 mph100%29.30 "Hg1 mi
5:20 am32 °FSnow. Mostly cloudy.2 mph100%29.27 "Hg1 mi
4:50 am32 °FPassing clouds.2 mph100%29.27 "Hg1 mi
4:20 am32 °FPassing clouds.3 mph100%29.27 "Hg2 mi
3:50 am34 °FOvercast.7 mph93%29.27 "Hg4 mi
3:20 am34 °FMostly cloudy.8 mph93%29.27 "HgN/A
2:50 am36 °FMostly cloudy.8 mph93%29.27 "HgN/A
Weather by CustomWeather, © 2021

See weather overview